Location: NJAA Observatory
(40.6819°N, 74.8979°W)
Time: 20:27:57
(UTC-04:00)

Vanguard 1 - All Passes

Search period start: 27 August 2016 00:00
Search period end: 06 September 2016 00:00
Orbit: 649 x 3835 km, 34.3° (Epoch: 26 August)

Date Brightness Start Highest point End Pass type
(mag) Time Alt. Az. Time Alt. Az. Time Alt. Az.
27 Aug - 02:26:14 10° WSW 02:29:00 11° SW 02:31:27 10° SW visible
27 Aug - 14:41:53 10° SSE 14:54:41 19° SE 15:08:11 10° E daylight
27 Aug - 16:57:16 10° SSW 17:18:07 47° SSE 17:37:14 10° E daylight
27 Aug - 19:20:24 10° WSW 19:43:49 68° S 20:00:22 10° E daylight
27 Aug - 21:47:38 10° W 22:08:54 67° SSW 22:21:13 10° ESE visible
28 Aug - 00:16:15 10° W 00:30:45 37° SW 00:39:22 10° SSE visible
28 Aug - 14:59:50 10° S 15:15:18 26° SE 15:31:51 10° E daylight
28 Aug - 17:17:39 10° SW 17:39:20 54° SSE 17:58:48 10° E daylight
28 Aug - 19:41:50 10° WSW 20:05:20 71° S 20:21:33 10° E visible
28 Aug - 22:09:28 10° W 22:30:06 62° SSW 22:42:01 10° ESE visible
29 Aug - 00:38:29 10° W 00:51:12 29° SW 00:59:15 10° S visible
29 Aug - 15:18:47 10° SSW 15:35:59 33° SE 15:54:32 10° E daylight
29 Aug - 17:38:22 10° SW 18:00:39 60° SSE 18:20:14 10° E daylight
29 Aug - 20:03:24 10° WSW 20:26:52 72° S 20:42:40 10° E visible
29 Aug - 22:31:19 10° W 22:51:09 56° SSW 23:02:41 10° SE visible
30 Aug - 01:01:09 10° W 01:11:29 21° SW 01:18:38 10° S visible
30 Aug - 13:28:16 10° SE 13:34:46 12° ESE 13:41:45 10° ESE daylight
30 Aug - 15:38:22 10° SSW 15:56:48 40° SE 16:16:42 10° E daylight
30 Aug - 17:59:20 10° WSW 18:22:06 66° SSE 18:41:36 10° E daylight
30 Aug - 20:25:04 10° W 20:48:22 71° S 21:03:43 10° ESE visible
30 Aug - 22:53:13 10° W 23:12:02 48° SSW 23:23:11 10° SE visible
31 Aug - 01:24:48 10° W 01:31:39 15° SW 01:37:00 10° SSW visible
31 Aug - 13:43:44 10° SSE 13:55:07 19° SE 14:08:08 10° E daylight
31 Aug - 15:58:24 10° SSW 16:17:45 48° SSE 16:38:33 10° E daylight
31 Aug - 18:20:30 10° WSW 18:43:37 70° S 19:02:55 10° E daylight
31 Aug - 20:46:47 10° W 21:09:47 68° SSW 21:24:42 10° ESE visible
31 Aug - 23:15:15 10° W 23:32:45 40° SW 23:43:26 10° SSE visible
01 Sep - 14:01:43 10° S 14:15:31 25° SE 14:31:57 10° E daylight
01 Sep - 16:18:48 10° SW 16:38:51 55° SSE 17:00:13 10° E daylight
01 Sep - 18:41:51 10° WSW 19:05:13 72° S 19:24:11 10° E daylight
01 Sep - 21:08:32 10° W 21:31:06 64° SSW 21:45:34 10° ESE visible
01 Sep - 23:37:29 10° W 23:53:15 32° SW 00:03:21 10° SSE visible
02 Sep - 14:20:44 10° S 14:36:02 32° SE 14:54:46 10° E daylight
02 Sep - 16:39:27 10° SW 17:00:08 61° SSE 17:21:47 10° E daylight
02 Sep - 19:03:19 10° W 19:26:50 73° S 19:45:25 10° E daylight
02 Sep - 21:30:20 10° W 21:52:15 58° SSW 22:06:17 10° SE visible
03 Sep - 00:00:06 10° W 00:13:35 25° SW 00:22:49 10° S visible
03 Sep - 12:32:02 10° SE 12:35:42 11° ESE 12:39:36 10° ESE daylight
03 Sep - 14:40:20 10° SSW 14:56:41 40° SE 15:17:03 10° E daylight
03 Sep - 17:00:21 10° WSW 17:21:32 66° SSE 17:43:16 10° E daylight
03 Sep - 19:24:51 10° W 19:48:26 72° S 20:06:34 10° ESE visible
03 Sep - 21:52:12 10° W 22:13:14 51° SSW 22:26:48 10° SE visible
04 Sep - 00:23:29 10° W 00:33:46 18° SW 00:41:29 10° SSW visible
04 Sep - 12:46:28 10° SSE 12:55:52 17° SE 13:07:15 10° E daylight
04 Sep - 15:00:23 10° SSW 15:17:30 47° SE 15:39:01 10° E daylight
04 Sep - 17:21:26 10° WSW 17:43:04 70° SSE 18:04:43 10° E daylight
04 Sep - 19:46:28 10° W 20:09:57 69° SSW 20:27:38 10° ESE visible
04 Sep - 22:14:11 10° W 22:34:01 43° SW 22:47:03 10° SSE visible
05 Sep - 00:48:59 10° WSW 00:53:51 12° WSW 00:58:06 10° SW visible
05 Sep - 13:04:25 10° S 13:16:07 24° SE 13:31:16 10° E daylight
05 Sep - 15:20:44 10° SW 15:38:30 54° SSE 16:00:48 10° E daylight
05 Sep - 17:42:41 10° WSW 18:04:41 73° S 18:26:06 10° E daylight
05 Sep - 20:08:08 10° W 20:31:22 65° SSW 20:48:33 10° ESE visible
05 Sep - 22:36:22 10° W 22:54:36 35° SW 23:07:01 10° SSE visible
